Regional Weather Roundup
Issued by NWS Kansas City/Pleasant Hill, MO

Home | Current Version | Previous Version | Graphics & Text | Print | Product List | Glossary Off
Versions: 1 2 3 4 5 6 7 8 9 10 11 12 13 14 15 16 17 18 19 20 21 22 23 24 25 26 27 28 29 30 31 32 33 34 35 36 37 38 39 40 41 42 43 44 45 46 47 48 49 50

000
ASUS43 KEAX 012010
RWREAX

WEATHER ROUNDUP FOR EASTERN KANSAS AND NORTHWEST MISSOURI
NATIONAL WEATHER SERVICE KANSAS CITY/PLEASANT HILL MO
300 PM CDT TUE SEP 01 2015

KSZ040-057-103>105-MOZ028-029-037-043-012100-
...KANSAS CITY METROPOLITAN AREA...

CITY           SKY/WX    TMP DP  RH WIND       PRES   REMARKS
K.C. INTL      PTSUNNY   90  67  46 S12       30.01S HX  93
K.C. DOWNTOWN  SUNNY     91  66  43 S15       30.00F HX  93
LEES SUMMIT    MOSUNNY   88  68  51 SW13      30.03F HX  91
OLATHE - IXD   SUNNY     87  67  51 S17       30.03F HX  90
OLATHE - OJC   SUNNY     86  69  56 SW13      30.02F HX  90
LAWRENCE       SUNNY     90  67  46 S15G23    29.99F HX  93

$$

MOZ001>008-011>017-020>025-030>033-038>040-044>046-053-054-012100-
...NORTHERN AND CENTRAL MISSOURI...

CITY           SKY/WX    TMP DP  RH WIND       PRES   REMARKS
ST. JOSEPH     MOSUNNY   89  70  53 S13       29.98F HX  94
MOSBY          CLEAR     90  64  43 S8        30.01F HX  91
WARRENSBURG    SUNNY     90  64  43 S13       30.03F HX  91
WHITEMAN AFB   MOSUNNY   92  67  44 SW13      30.03S HX  95
CLINTON        SUNNY     91  70  49 SW12      30.04F HX  97
SEDALIA        SUNNY     92  67  43 S9        30.06S HX  95
WARSAW         NOT AVBL
CHILLICOTHE      N/A     91  68  46 SW8G17    30.01F HX  95
KIRKSVILLE     SUNNY     90  68  48 SW8       30.04S HX  94

$$

MOZ041-047>049-056>058-063>065-088>090-097-012100-
...EASTERN AND SOUTHERN MISSOURI...

CITY           SKY/WX    TMP DP  RH WIND       PRES   REMARKS
ST. LOUIS INTL MOSUNNY   92  68  45 S9        30.06F HX  96
SPIRIT OF STL  MOSUNNY   91  70  49 SW7       30.04F HX  96
COLUMBIA       SUNNY     89  71  55 S9        30.05F HX  95
JEFFERSON CITY SUNNY     91  65  41 SW8       30.03F HX  93
ROLLA          PTSUNNY   89  66  46 SE10G18   30.06F HX  91
OSAGE BEACH    PTSUNNY   90  66  45 SE7       30.06F HX  92
SPRINGFIELD    MOSUNNY   87  66  49 SW12      30.08F
BRANSON        MOSUNNY   88  64  45 S7        30.09F
JOPLIN         MOSUNNY   87  66  49 S10       30.05F
WEST PLAINS    MOSUNNY   86  65  49 S10       30.12F

$$

IAZ060-094-KSZ022-034>040-054-083-096-NEZ052-066-093-012100-
...KANSAS...SOUTHEAST NEBRASKA AND IOWA...

CITY           SKY/WX    TMP DP  RH WIND       PRES   REMARKS
TOPEKA         SUNNY     91  67  44 SE15G22   29.98S HX  94
MANHATTAN      MOSUNNY   91  64  40 S15G24    29.95S HX  92
EMPORIA        SUNNY     89  64  43 S16G26    29.99F HX  90
CHANUTE        SUNNY     87  67  51 S16       30.03F HX  90
WICHITA        MOSUNNY   94  60  32 S15G25    29.96F HX  94
OMAHA          PTSUNNY   88  69  53 S16       29.92F HX  92
LINCOLN        MOSUNNY   90  67  46 S15       29.91F HX  93
FALLS CITY     MOSUNNY   92  68  45 S15       29.95F HX  96
LAMONI         MOSUNNY   89  70  53 S10       30.00F HX  94
DES MOINES     CLOUDY    90  71  53 S13       29.96S HX  96

$$




USA.gov is the U.S. government's official web portal to all federal, state and local government web resources and services.